Observations
| Time | Sensor | AQI | SAQ | Temp °C | Hum % | Pres Pa | CO μg/m³ | H₂S μg/m³ | NO μg/m³ | NO₂ μg/m³ | O₃ μg/m³ | SO₂ μg/m³ | CO₂e PPM | VOC PPM | PM1 μg/m³ | PM2.5 μg/m³ | PM4 μg/m³ | PM10 μg/m³ | TPS µm |
|---|---|---|---|---|---|---|---|---|---|---|---|---|---|---|---|---|---|---|---|
| Wednesday 12 August 2026 | |||||||||||||||||||
| 06:07 | Trim Market St | 2 | 19.5 | 68 | 56,431 | 0.12 | 0 | 1.35 | 12.34 | 71.38 | 0 | 3.56 | 5.58 | 8.17 | |||||
| 06:06 | Trim Patrick St | 2 | 19 | 70 | 38,460 | 0.08 | 0 | 1.18 | 11.94 | 57.62 | 0 | 7.14 | 10.88 | 11.97 | |||||
| 06:05 | Trim Patrick St | 2 | 19 | 71 | 38,460 | 0.08 | 0 | 1.21 | 11.7 | 51.23 | 0 | 7.14 | 12.25 | 13.48 | |||||
| 06:04 | Trim Patrick St | 2 | 18.9 | 72 | 38,460 | 0.07 | 0 | 1.4 | 10.75 | 50.82 | 0 | 6.29 | 11.49 | 12.64 | |||||
| 06:03 | Trim Patrick St | 2 | 18.9 | 72 | 38,460 | 0.08 | 0 | 1.41 | 7.17 | 48.18 | 0 | 6.29 | 10.79 | 11.87 | |||||
| 06:02 | Trim Patrick St | 2 | 18.9 | 71 | 38,460 | 0.08 | 1.14 | 1.46 | 15.8 | 57.97 | 0 | 8 | 12.98 | 14.28 | |||||
| 06:01 | Trim Patrick St | 2 | 18.9 | 70 | 38,460 | 0.08 | 0 | 1.51 | 31.02 | 54.93 | 0 | 7.14 | 13.09 | 14.4 | |||||
| 06:00 | Trim Patrick St | 2 | 18.9 | 72 | 38,460 | 0.09 | 0 | 1.49 | 34.99 | 29.3 | 0 | 5.43 | 10.8 | 11.88 | |||||
| 05:58 | Trim Patrick St | 2 | 18.9 | 72 | 38,460 | 0.09 | 0 | 1.36 | 19.78 | 53.63 | 0 | 8 | 11.52 | 12.67 | |||||
| 05:58 | Trim Market St | 2 | 19.4 | 68 | 56,304 | 0.14 | 0 | 1.2 | 13.68 | 70.78 | 0 | 4.28 | 5.08 | 8.17 | |||||
| 05:57 | Trim Market St | 2 | 19.4 | 68 | 56,300 | 0.12 | 0 | 1.21 | 16.96 | 62.05 | 0 | 3.56 | 6.06 | 11.35 | |||||
| 05:56 | Trim Market St | 2 | 19.4 | 68 | 56,303 | 0.13 | 0 | 1.2 | 14.52 | 62.92 | 0 | 3.56 | 5.08 | 7.53 | |||||
| 05:55 | Trim Market St | 2 | 19.4 | 68 | 56,295 | 0.12 | 0 | 1.2 | 11.09 | 75.56 | 0 | 3.56 | 5.08 | 7.53 | |||||
| 05:54 | Trim Market St | 2 | 19.4 | 68 | 56,276 | 0.13 | 0 | 1.19 | 12.31 | 68.2 | 0 | 2.85 | 5.08 | 7.53 | |||||
| 05:53 | Trim Market St | 2 | 19.4 | 68 | 56,283 | 0.13 | 0 | 1.24 | 25.67 | 66.13 | 0 | 1.43 | 4.11 | 8.17 | |||||
| 05:52 | Trim Patrick St | 2 | 18.8 | 72 | 38,460 | 0.09 | 1.48 | 1.33 | 14.13 | 54.28 | 0 | 6.29 | 11.51 | 12.66 | |||||
| 05:52 | Trim Market St | 2 | 19.3 | 68 | 56,287 | 0.12 | 0 | 1.25 | 17.71 | 62.42 | 0 | 4.28 | 6.55 | 10.08 | |||||
| 05:51 | Trim Market St | 2 | 19.3 | 68 | 56,294 | 0.12 | 0 | 1.24 | 11.84 | 70.39 | 0 | 4.99 | 6.55 | 10.08 | |||||
| 05:50 | Trim Market St | 2 | 19.3 | 68 | 56,291 | 0.13 | 0 | 1.21 | 13.26 | 70.43 | 0 | 3.56 | 5.08 | 7.53 | |||||
| 05:49 | Trim Market St | 2 | 19.3 | 68 | 56,295 | 0.12 | 0 | 1.2 | 14.22 | 64.18 | 0 | 2.85 | 6.54 | 9.44 | |||||